Погода в Челябинске

Погода в Челябинске : погода сейчас, прогноз погоды и архив. Всё, что Вы хотите узнать о погоде в Челябинске!

Хотите узнать прогноз погоды в Челябинске? Тогда Вам сюда: Погода в Челябинске

Поиск расширенной информации на нашем сайте:

Другие новости

Новости СМИ2

Главная страница сайта

Новости сайта

03.07.2017

Напоминаем, что на нашем специализированном сайте Метеоцентр.Азия вы можете получить высокодетализированные автоматические прогнозы погоды по пунктам России, СНГ и мира в авиационном формате (включающие направление и скорость ветра, видимость, явления погоды, количество и форму облачности, нижнюю и верхнюю границу облачности).

Рекомендуем: лучшие строительные порталы Москвы

Погода в Челябинске - сегодня

Время (UTC), дата Ветер
(°,м/с) 
Видим.   Явления Облачность Т
(°С)
Тd
(°С)
f(%) Тe
(°С)
Pmin
(гПа)
dP
(гПа)
Po
(мм)
O2
(г/м3)
Тmin Tmax R s Состояние
почвы
03 18.11.17 290 (З) 4000 м    8/0 верхняя 
[Ci fib]
-1.6 -5.8 73 -3  1018.9  1.3  742  301  -3.5    0.0     
06 18.11.17 280 (З) 10 км    10/10 300 м кучево-дожд. 
[Cb calv]
-0.6 -5.3 70 -2  1020.3  1.5  743  301           
09 18.11.17 280 (З) 10 км  слаб. ливневой снег  10/10 300 м кучево-дожд. 
[Cb calv]
+0 -5.9 64 -2  1021.8  1.4  744  300           
12 18.11.17 230 (ЮЗ) 10 км  {ливн. осадки}  10/10 300 м кучево-дожд. 
[Cb calv]
-0.8 -7.3 61 1022.6  0.8  745  302           
15 18.11.17 200 (Ю) 4000 м    10/10 300 м кучево-дожд. 
[Cb calv]
-0.8 -6.6 65 -2  1022.3  -0.3  744  301    +0.1  0.0     
18 18.11.17 190 (Ю) 4000 м    10/10 300 м кучево-дожд. 
[Cb calv]
-0.9 -6.1 68 1022.8  0.4  745  302           
21 18.11.17 190 (Ю) 4000 м    10/10 300 м кучево-дожд. 
[Cb calv]
-0.8 -5.7 69 -2  1022.9  0.2  745  302           
00 19.11.17 260 (З) 4000 м  слаб. ливневой снег  10/10 300 м кучево-дожд. 
[Cb calv]
-0.9 -4.8 75 -2  1024.1  1.1  746  302           
03 19.11.17 210 (ЮЗ) 4000 м  {ливн. осадки}  10/10 300 м кучево-дожд. 
[Cb calv]
-0.2 -4.2 74 1025.6  1.5  747  302  -1.6    0.0  <0.5  равномерный
сухой снег
100% 
06 19.11.17 220 (ЮЗ) 20000 м  {ливн. осадки}  10/10 300 м кучево-дожд. 
[Cb calv]
+0.8 -3.8 71 +1  1027.5  1.9  748  301           
09 19.11.17 220 (ЮЗ) 20000 м    5/5 300 м кучево-дожд. 
[Cb calv]
+2.8 -3.4 64 +2  1028.2  1.1  749  299           
12 19.11.17 220 (ЮЗ) 10 км    9/9 300 м кучево-дожд. 
[Cb calv]
+1.9 -3.1 69 +1  1029.1  0.6  749  300           
15 19.11.17 200 (Ю) 4000 м    10/10 300 м кучево-дожд. 
[Cb calv]
+0.9 -3.3 73 +2  1029.3  0.1  750  301    +3.5       
18 19.11.17 тихо ()   4000 м  слаб. ливневой снег  10/10 300 м кучево-дожд. 
[Cb calv]
-0.3 -3 82 -0  1029.3  -0.1  749  303           
21 19.11.17 тихо ()   4000 м  {ливн. осадки}  3/0 верхняя 
[Ci fib]
-2.9 -5.2 84 -3  1029.8  0.2  750  306           
00 20.11.17 200 (Ю) 10 км    ясно 
-4.9 -6.2 91 -4  1029.7  -0.3  749  308           
03 20.11.17 тихо ()   4000 м    ясно 
-6.3 -7.5 91 -6  1029.5  -0.4  749  310  -6.3    0.0  <0.5  равномерный
сухой снег
100% 
06 20.11.17 190 (Ю) 10 км    10/10 300 м кучево-дожд. 
[Cb calv]
-3.8 -5.9 85 -5  1028.9  -0.2  749  307  -6.7         
09 20.11.17 190 (Ю) 10 км    10/10 300 м кучево-дожд. 
[Cb calv]
-1.8 -4.7 81 -3  1028.9  -0.6  749  304           
12 20.11.17 190 (Ю) 10 км    9/9 300 м кучево-дожд. 
[Cb calv]
-1 -4 80 -2  1028  -0.1  748  303           
15 20.11.17 180 (Ю) 4000 м    ясно 
-2 -4.5 83 -3  1027.7  -0.4  748  304    -0.9       
18 20.11.17 170 (Ю) 4000 м    ясно 
-2.1 -4.5 84 -2  1027.5  -0.1  748  304           
21 20.11.17 200 (Ю) 4000 м    8/8 300 м кучево-дожд. 
[Cb calv]
-1 -3.8 81 -2  1027  -0.4  748  303           
00 21.11.17 190 (Ю) 4000 м    10/10 300 м кучево-дожд. 
[Cb calv]
+0.3 -3.2 77 1026.8  748  301           
03 21.11.17 180 (Ю) 4000 м    ясно 
-1.1 -4.1 80 -2  1026.9  -0.1  748  303  -2.3      <0.5  равномерный
сухой снег
100% 
Время (UTC), дата Ветер
(°,м/с) 
Видим.   Явления Облачность Т
(°С)
Тd
(°С)
f(%) Тe
(°С)
Pmin
(гПа)
dP
(гПа)
Po
(мм)
O2
(г/м3)
Тmin Tmax R s Состояние
почвы

Для получения пояснительной информации подведите курсор к названию столбца.

ПОГОДА в Челябинске - архив

Всё, что Вы хотите узнать о погоде в Челябинске - удобно и подробно!

Выберите нужную дату (начиная с 1 января 2015* года) и нажмите кнопку "Найти".
Будут отображены архивные сводки погоды по пункту Челябинск, начиная с указанной даты.


Отображать данные в формате CSV (для использования в таблицах Excel)


Внимание! Наш архив погоды предназначен исключительно для личного некоммерческого использования в познавательных целях. Если Вам необходимы официальные справки о состоянии погоды (для производственных, юридических, коммерческих и т.п. целей), обращайтесь в органы Росгидромета.

*Примечание: данная дата относится к архиву по метеостанциям СССР (Россия, СНГ, Балтия).
Архив по метеостанциям Зарубежной Европы и Азии (кроме Китая) хранится 10 дней, по другим регионам земного шара (Китай, Африка, Америка, Австралия, Океания) - 1 день.

Челябинск - район местоположения метеостанции


Название, широта, долгота, высота метеостанции:
Челябинск (город) 55.2°ш. 61.3°д. 237 м над ур. моря [Российская Федерация]

Дополнительная информация

В oтличие oт бoльшинства пoгoдных сайтoв мы публикуем пoдрoбную метеoинфoрмацию в детальнoм прoфессиoнальнoм фoрмате.

Характеристики температуры и влажнoсти вoздуха измеряются на высoте 2 м в тени вдали oт зданий и деревьев.
Скoрoсть ветра измеряется на высoте 10 м (на урoвне рoста челoвека скoрoсть ветра ниже в 1.5-2 раза). Если метеoстанция нахoдится в гoрoде или в лесу, тo скoрoсть ветра занижена на 2-4 м/с пo сравнению с oткрытым местoм. Скoрoсть ветра над акватoриями крупных рек и oзёр, а также на вершинах хoлмoв на 2-5 м/с выше, чем в oбычных услoвиях.
Атмoсфернoе давление в разных тoчках местнoсти мoжет значительнo oтличаться oт давления на метеoстанции, в зависимoсти oт услoвий рельефа (при пoдъёме на 10 м давление пoнижается примернo на 1 мм рт.ст.).